Goshen, IN

6:02 PM EDT on July 26, 2017 (GMT -0400)
Goshen Municipal

Weather History for KGSH - February, 2013

Change the Weather History Date:

Monday, February 18, 2013

  Actual Average Record
Temperature  
Mean Temperature 39 °F -  
Max Temperature 54 °F 37 °F 64 °F (2017)
Min Temperature 24 °F 21 °F -10 °F (1978)
Degree Days  
Heating Degree Days 26    
Moisture  
Dew Point 29 °F    
Average Humidity 63    
Maximum Humidity 82    
Minimum Humidity 49    
Precipitation  
Precipitation 0.08 in - - ()
Sea Level Pressure  
Sea Level Pressure 29.81 in    
Wind  
Wind Speed 14 mph (SSE)    
Max Wind Speed 25 mph    
Max Gust Speed 39 mph    
Visibility 10 miles    
Events Rain    
Averages and records for this station are not official NWS values.
T = Trace of Precipitation, MM = Missing Value Source: NWS Daily Summary

Daily Weather History Graph

Daily Weather History Graph

Search for Another Location

Airport or City:

Trip Planner

Search our weather history database for the weather conditions in past years. The results will help you decide how hot, cold, wet, or windy it might be!

Date:

Astronomy

Feb. 18, 2013 Rise Set
Actual Time 7:33 AM EST 6:20 PM EST
Civil Twilight 7:05 AM EST 6:49 PM EST
Nautical Twilight 6:33 AM EST 7:21 PM EST
Astronomical Twilight 6:01 AM EST 7:53 PM EST
Moon 12:04 PM EST (2/18) 2:15 AM EST (2/18)
Length of Visible Light 11h 43m
Length of Day
10h 47m
First Quarter, 58% of the Moon is Illuminated
Feb 18
First Quarter
Feb 25
Full
Mar 4
Last Quarter
Mar 11
New
Mar 19
First Quarter

Hourly Weather History & Observations

Time (EST) Temp. Windchill Dew Point Humidity Pressure Visibility Wind Dir Wind Speed Gust Speed Precip Events Conditions
12:53 AM 24.1 °F 14.4 °F 12.0 °F 60% 30.16 in 10.0 mi SSE 9.2 mph - N/A   Clear
1:53 AM 24.1 °F 14.4 °F 12.0 °F 60% 30.14 in 10.0 mi SE 9.2 mph - N/A   Clear
2:53 AM 24.1 °F 13.7 °F 12.0 °F 60% 30.12 in 10.0 mi SE 10.4 mph - N/A   Clear
3:53 AM 26.1 °F 16.8 °F 12.0 °F 55% 30.09 in 10.0 mi SE 9.2 mph - N/A   Overcast
4:53 AM 26.1 °F 15.0 °F 12.0 °F 55% 30.05 in 10.0 mi SE 12.7 mph - N/A   Clear
5:53 AM 27.0 °F 14.7 °F 12.0 °F 53% 30.02 in 10.0 mi SE 16.1 mph 25.3 mph N/A   Clear
6:53 AM 28.0 °F 14.6 °F 12.9 °F 53% 29.98 in 10.0 mi SSE 20.7 mph 26.5 mph N/A   Clear
7:53 AM 28.9 °F 16.9 °F 14.0 °F 54% 29.96 in 10.0 mi SSE 17.3 mph - N/A   Clear
9:53 AM 36.0 °F 26.0 °F 19.0 °F 50% 29.91 in 10.0 mi South 17.3 mph - N/A   Clear
10:53 AM 41.0 °F 32.5 °F 23.0 °F 49% 29.89 in 10.0 mi South 17.3 mph 24.2 mph N/A   Clear
11:53 AM 44.1 °F 37.4 °F 27.0 °F 51% 29.86 in 10.0 mi South 13.8 mph 24.2 mph N/A   Clear
12:53 PM 48.0 °F - 30.0 °F 50% 29.83 in 10.0 mi South 18.4 mph 26.5 mph N/A   Clear
1:53 PM 51.1 °F - 33.1 °F 50% 29.78 in 10.0 mi South 16.1 mph 23.0 mph N/A   Clear
2:53 PM 54.0 °F - 36.0 °F 51% 29.76 in 10.0 mi SSW 21.9 mph 31.1 mph N/A   Partly Cloudy
3:53 PM 51.1 °F - 37.9 °F 61% 29.73 in 10.0 mi South 13.8 mph 21.9 mph N/A   Overcast
4:42 PM 51.8 °F - 39.2 °F 62% 29.70 in 10.0 mi South 17.3 mph 25.3 mph N/A   Overcast
4:53 PM 50.0 °F - 39.9 °F 68% 29.71 in 10.0 mi South 12.7 mph 23.0 mph N/A   Overcast
5:13 PM 48.2 °F - 39.2 °F 71% 29.69 in 10.0 mi SSE 12.7 mph - N/A   Overcast
5:24 PM 48.2 °F - 39.2 °F 71% 29.69 in 10.0 mi SSE 11.5 mph - N/A   Overcast
5:32 PM 48.2 °F - 39.2 °F 71% 29.69 in 9.0 mi SSE 12.7 mph - 0.00 in Rain Light Rain
5:53 PM 46.9 °F - 39.9 °F 77% 29.70 in 7.0 mi SSE 12.7 mph - 0.00 in Rain Light Rain
6:53 PM 46.0 °F 41.0 °F 39.9 °F 79% 29.68 in 10.0 mi SSE 10.4 mph - 0.01 in   Overcast
7:53 PM 48.0 °F - 37.0 °F 66% 29.65 in 10.0 mi South 20.7 mph 29.9 mph N/A   Overcast
8:53 PM 46.9 °F - 37.0 °F 68% 29.62 in 10.0 mi South 18.4 mph 26.5 mph 0.00 in   Overcast
9:53 PM 45.0 °F 37.6 °F 39.0 °F 80% 29.59 in 9.0 mi South 17.3 mph 26.5 mph 0.04 in Rain Light Rain
10:53 PM 45.0 °F 36.9 °F 39.0 °F 80% 29.54 in 9.0 mi South 20.7 mph 34.5 mph 0.02 in Rain Light Rain
11:17 PM 44.6 °F 35.7 °F 39.2 °F 81% 29.51 in 10.0 mi South 24.2 mph 35.7 mph 0.00 in Rain Light Rain
11:53 PM 45.0 °F 36.0 °F 39.9 °F 82% 29.50 in 10.0 mi South 25.3 mph 39.1 mph 0.01 in Rain Light Rain